Tracking 32964 objects as of 20-Jan-2026
HD Live streaming from Space Station
objects crossing your sky now

FENGYUN 1C DEB

Track FENGYUN 1C DEB now!
10-day predictions


NORAD ID: 32432
Int'l Code: 1999-025DAU
Perigee: 600.0 km
Apogee: 845.7 km
Inclination: 98.2 °
Period: 99.1 minutes
Semi major axis: 7093 km
RCS: 0.0125 m2 (small)
Launch date: May 10, 1999
Source: People's Republic of China (PRC)
Launch site: Taiyaun Space Center, China (TSC)

Note: This is SATELLITE DEBRIS
Your satellite tracking list
Your tracking list is empty




NASA's NSSDC Master Catalog

Two Line Element Set (TLE):
1 32432U 99025DAU 26017.91311312  .00006971  00000-0  13937-2 0  9994
2 32432  98.1682  58.1788 0173156 193.9066 165.7330 14.53049213712203
Source of the keplerian elements: AFSPC